Tracking 20241 objects as of 26-Jan-2020
HD Live streaming from Space Station
objects crossing your sky now

COSMOS 1637

Track COSMOS 1637 now!
10-day predictions
COSMOS 1637 is classified as:


NORAD ID: 15619
Int'l Code: 1985-023C
Perigee: 1,471.3 km
Apogee: 1,495.4 km
Inclination: 74.1 °
Period: 115.5 minutes
Semi major axis: 7854 km
RCS: 0.7025 m2 (medium)
Launch date: March 21, 1985
Source: Commonwealth of Independent States (former USSR) (CIS)
Launch site: PLESETSK MISSILE AND SPACE COMPLEX (PKMTR)
aabbcc
Your satellite tracking list
Your tracking list is empty




NASA's NSSDC Master Catalog

Two Line Element Set (TLE):
1 15619U 85023C   20025.55924609 -.00000018 +00000-0 -14917-4 0  9996
2 15619 074.0563 311.0247 0015368 191.8418 341.5321 12.47203315586693
Source of the keplerian elements: AFSPC